START_TIME,STEP,MOV.,M34,t_acc.,L5,t_acc.,L18,t_acc.,L14,t_acc.
1979-08-03 00:00:23.520 ,0,0,0.,12.0,0.,12.0,0.,12.0,0.,12.0
1979-08-03 00:00:35.520 ,0,0,0.,12.0,0.,12.0,0.,12.0,0.,12.0
1979-08-03 00:00:47.520 ,1,1,0.,12.0,0.,12.0,0.,12.0,0.,12.0
1979-08-03 00:00:59.520 ,1,1,0.,12.0,0.,12.0,0.,12.0,0.,12.0
1979-08-03 00:01:11.520 ,1,0,0.,12.0,0.,12.0,0.,12.0,0.,12.0
1979-08-03 00:01:23.520 ,1,0,0.,12.0,0.,12.0,0.,12.0,0.,12.0
1979-08-03 00:01:35.520 ,2,1,0.,12.0,0.,12.0,0.,12.0,0.,12.0
1979-08-03 00:01:47.520 ,2,1,0.,12.0,0.,12.0,0.,12.0,0.,12.0
1979-08-03 00:01:59.520 ,2,0,0.,12.0,0.,12.0,0.,12.0,0.,12.0
1979-08-03 00:02:11.520 ,2,0,0.,12.0,0.,12.0,0.,12.0,0.,12.0
1979-08-03 00:02:23.520 ,3,1,0.,12.0,0.,12.0,0.,12.0,0.,12.0
1979-08-03 00:02:35.520 ,3,1,0.,12.0,0.,12.0,0.,12.0,0.,12.0
1979-08-03 00:02:47.520 ,3,0,0.,12.0,0.,12.0,0.,12.0,0.,12.0
1979-08-03 00:02:59.520 ,3,0,0.,12.0,0.,12.0,0.,12.0,0.,12.0
1979-08-03 00:03:11.520 ,4,1,0.,12.0,0.,12.0,0.,12.0,0.,12.0
1979-08-03 00:03:23.520 ,4,1,0.,12.0,0.,12.0,0.,12.0,0.,12.0
1979-08-03 00:03:35.520 ,4,0,0.,12.0,0.,12.0,0.,12.0,0.,12.0
1979-08-03 00:03:47.520 ,4,0,0.,12.0,0.,12.0,0.,12.0,0.,12.0
1979-08-03 00:03:59.520 ,5,1,0.,12.0,0.,12.0,0.,12.0,0.,12.0
1979-08-03 00:04:11.520 ,5,1,0.,12.0,0.,12.0,0.,12.0,0.,12.0
1979-08-03 00:04:23.520 ,5,0,0.,12.0,0.,12.0,0.,12.0,0.,12.0
1979-08-03 00:04:35.520 ,5,0,0.,12.0,0.,12.0,0.,12.0,0.,12.0
1979-08-03 00:04:47.520 ,6,1,0.,12.0,0.,12.0,0.,12.0,0.,12.0
1979-08-03 00:04:59.520 ,6,1,0.,12.0,0.,12.0,0.,12.0,0.,12.0
1979-08-03 00:05:11.520 ,6,0,0.,12.0,0.,12.0,0.,12.0,0.,12.0
1979-08-03 00:05:23.520 ,6,0,0.,12.0,0.,12.0,0.,12.0,0.,12.0
1979-08-03 00:05:35.520 ,7,1,0.,12.0,0.,12.0,0.,12.0,0.,12.0
1979-08-03 00:05:47.520 ,7,1,0.,12.0,0.,12.0,0.,12.0,0.,12.0
1979-08-03 00:05:59.520 ,7,0,0.,12.0,0.,12.0,0.,12.0,0.,12.0
1979-08-03 00:06:11.520 ,7,0,0.,12.0,0.,12.0,0.,12.0,0.,12.0
1979-08-03 00:06:23.520 ,7,1,0.,12.0,0.,12.0,0.,12.0,0.,12.0
1979-08-03 00:06:35.520 ,7,1,0.,12.0,0.,12.0,0.,12.0,0.,12.0
1979-08-03 00:06:47.520 ,7,0,0.,12.0,0.,12.0,0.,12.0,0.,12.0
1979-08-03 00:06:59.520 ,7,0,0.,12.0,0.,12.0,0.,12.0,0.,12.0
1979-08-03 00:07:11.520 ,6,1,0.,12.0,0.,12.0,0.,12.0,0.,12.0
1979-08-03 00:07:23.520 ,6,1,0.,12.0,0.,12.0,0.,12.0,0.,12.0
1979-08-03 00:07:35.520 ,6,0,0.,12.0,0.,12.0,0.,12.0,0.,12.0
1979-08-03 00:07:47.520 ,6,0,0.,12.0,0.,12.0,0.,12.0,0.,12.0
1979-08-03 00:07:59.520 ,5,1,0.,12.0,0.,12.0,0.,12.0,0.,12.0
1979-08-03 00:08:11.520 ,5,1,0.,12.0,0.,12.0,0.,12.0,0.,12.0
1979-08-03 00:08:23.520 ,5,0,0.,12.0,0.,12.0,0.,12.0,0.,12.0
1979-08-03 00:08:35.520 ,5,0,0.,12.0,0.,12.0,0.,12.0,0.,12.0
1979-08-03 00:08:47.520 ,4,1,0.,12.0,0.,12.0,0.,12.0,0.,12.0
1979-08-03 00:08:59.520 ,4,1,0.,12.0,0.,12.0,0.,12.0,0.,12.0
1979-08-03 00:09:11.520 ,4,0,0.,12.0,0.,12.0,0.,12.0,0.,12.0
1979-08-03 00:09:23.520 ,4,0,0.,12.0,0.,12.0,0.,12.0,0.,12.0
1979-08-03 00:09:35.520 ,3,1,0.,12.0,0.,12.0,0.,12.0,0.,12.0
1979-08-03 00:09:47.520 ,3,1,0.,12.0,0.,12.0,0.,12.0,0.,12.0
1979-08-03 00:09:59.520 ,3,0,0.,12.0,0.,12.0,0.,12.0,0.,12.0
1979-08-03 00:10:11.520 ,3,0,0.,12.0,0.,12.0,0.,12.0,0.,12.0
1979-08-03 00:10:23.520 ,2,1,0.,12.0,0.,12.0,0.,12.0,0.,12.0
1979-08-03 00:10:35.520 ,2,1,0.,12.0,0.,12.0,0.,12.0,0.,12.0
1979-08-03 00:10:47.520 ,2,0,0.,12.0,0.,12.0,0.,12.0,0.,12.0
1979-08-03 00:10:59.520 ,2,0,0.,12.0,0.,12.0,0.,12.0,0.,12.0
1979-08-03 00:11:11.520 ,1,1,0.,12.0,0.,12.0,0.,12.0,0.,12.0
1979-08-03 00:11:23.520 ,1,1,0.,12.0,0.,12.0,0.,12.0,0.,12.0
1979-08-03 00:11:35.520 ,1,0,0.,12.0,0.,12.0,0.,12.0,0.,12.0
1979-08-03 00:11:47.520 ,1,0,0.,12.0,0.,12.0,0.,12.0,0.,12.0
1979-08-03 00:11:59.520 ,0,1,0.,12.0,0.,12.0,0.,12.0,0.,12.0
1979-08-03 00:12:11.520 ,0,1,0.,12.0,0.,12.0,0.,12.0,0.,12.0
1979-08-03 00:12:23.520 ,0,0,0.,12.0,0.,12.0,0.,12.0,0.,12.0
1979-08-03 00:12:35.520 ,0,0,0.,12.0,0.,12.0,0.,12.0,0.,12.0
1979-08-03 00:12:47.520 ,0,1,0.,12.0,0.,12.0,0.,12.0,0.,12.0
1979-08-03 00:12:59.520 ,0,1,0.,12.0,0.,12.0,0.,12.0,0.,12.0
1979-08-03 00:13:11.520 ,0,0,0.,12.0,0.,12.0,0.,12.0,0.,12.0
1979-08-03 00:13:23.520 ,0,0,0.,12.0,0.,12.0,0.,12.0,0.,12.0
1979-08-03 00:13:35.520 ,1,1,0.,12.0,0.,12.0,0.,12.0,0.,12.0
1979-08-03 00:13:47.520 ,1,1,0.,12.0,0.,12.0,0.,12.0,0.,12.0
1979-08-03 00:13:59.520 ,1,0,0.,12.0,0.,12.0,0.,12.0,0.,12.0
1979-08-03 00:14:11.520 ,1,0,0.,12.0,0.,12.0,0.,12.0,0.,12.0
1979-08-03 00:14:23.520 ,2,1,0.,12.0,0.,12.0,0.,12.0,0.,12.0
1979-08-03 00:14:35.520 ,2,1,0.,12.0,0.,12.0,0.,12.0,0.,12.0
1979-08-03 00:14:47.520 ,2,0,0.,12.0,0.,12.0,0.,12.0,0.,12.0
1979-08-03 00:14:59.520 ,2,0,0.,12.0,0.,12.0,0.,12.0,0.,12.0
1979-08-03 00:15:11.520 ,3,1,0.,12.0,0.,12.0,0.,12.0,0.,12.0
1979-08-03 00:15:23.520 ,3,1,0.,12.0,0.,12.0,0.,12.0,0.,12.0
1979-08-03 00:15:35.520 ,3,0,0.,12.0,0.,12.0,0.,12.0,0.,12.0
1979-08-03 00:15:47.520 ,3,0,0.,12.0,0.,12.0,0.,12.0,0.,12.0
1979-08-03 00:15:59.520 ,4,1,0.,12.0,0.,12.0,0.,12.0,0.,12.0
1979-08-03 00:16:11.520 ,4,1,0.,12.0,0.,12.0,0.,12.0,0.,12.0
1979-08-03 00:16:23.520 ,4,0,0.,12.0,0.,12.0,0.,12.0,0.,12.0
1979-08-03 00:16:35.520 ,4,0,0.,12.0,0.,12.0,0.,12.0,0.,12.0
1979-08-03 00:16:47.520 ,5,1,0.,12.0,0.,12.0,0.,12.0,0.,12.0
1979-08-03 00:16:59.520 ,5,1,0.,12.0,0.,12.0,0.,12.0,0.,12.0
1979-08-03 00:17:11.520 ,5,0,0.,12.0,0.,12.0,0.,12.0,1.,12.0
1979-08-03 00:17:23.520 ,5,0,0.,12.0,0.,12.0,0.,12.0,0.,12.0
1979-08-03 00:17:35.520 ,6,1,0.,12.0,0.,12.0,0.,12.0,0.,12.0
1979-08-03 00:17:47.520 ,6,1,0.,12.0,0.,12.0,0.,12.0,0.,12.0
1979-08-03 00:17:59.520 ,6,0,0.,12.0,0.,12.0,0.,12.0,0.,12.0
1979-08-03 00:18:11.520 ,6,0,0.,12.0,0.,12.0,0.,12.0,0.,12.0
1979-08-03 00:18:23.520 ,7,0,0.,12.0,0.,12.0,0.,12.0,0.,12.0
1979-08-03 00:18:35.520 ,7,0,0.,12.0,0.,12.0,0.,12.0,0.,12.0
1979-08-03 00:18:47.520 ,7,0,0.,12.0,0.,12.0,0.,12.0,0.,12.0
1979-08-03 00:18:59.520 ,7,0,0.,12.0,0.,12.0,0.,12.0,0.,12.0
1979-08-03 00:19:11.520 ,4,1,0.,12.0,0.,12.0,0.,12.0,0.,12.0
1979-08-03 00:19:23.520 ,4,1,0.,12.0,0.,12.0,0.,12.0,0.,12.0
1979-08-03 00:19:35.520 ,0,1,0.,12.0,0.,12.0,0.,12.0,0.,12.0
1979-08-03 00:19:47.520 ,0,1,0.,12.0,0.,12.0,0.,12.0,0.,12.0
1979-08-03 00:19:59.520 ,3,1,0.,12.0,0.,12.0,0.,12.0,0.,12.0
1979-08-03 00:20:11.520 ,3,1,0.,12.0,0.,12.0,0.,12.0,0.,12.0
1979-08-03 00:20:23.520 ,7,1,0.,12.0,0.,12.0,0.,12.0,0.,12.0
1979-08-03 00:20:35.520 ,7,1,0.,12.0,0.,12.0,0.,12.0,0.,12.0
1979-08-03 00:20:47.520 ,4,1,0.,12.0,0.,12.0,0.,12.0,0.,12.0
1979-08-03 00:20:59.520 ,4,1,0.,12.0,0.,12.0,0.,12.0,0.,12.0
1979-08-03 00:21:11.520 ,0,1,0.,12.0,0.,12.0,0.,12.0,0.,12.0
1979-08-03 00:21:23.520 ,0,1,0.,12.0,0.,12.0,0.,12.0,0.,12.0
1979-08-03 00:21:35.520 ,3,1,0.,12.0,0.,12.0,0.,12.0,0.,12.0
1979-08-03 00:21:47.520 ,3,1,0.,12.0,0.,12.0,0.,12.0,0.,12.0
1979-08-03 00:21:59.520 ,7,1,0.,12.0,0.,12.0,0.,12.0,0.,12.0
1979-08-03 00:22:11.520 ,7,1,0.,12.0,0.,12.0,0.,12.0,0.,12.0
1979-08-03 00:22:23.520 ,4,1,0.,12.0,0.,12.0,0.,12.0,0.,12.0
1979-08-03 00:22:35.520 ,4,1,0.,12.0,0.,12.0,0.,12.0,0.,12.0
1979-08-03 00:22:47.520 ,0,1,0.,12.0,0.,12.0,0.,12.0,0.,12.0
1979-08-03 00:22:59.520 ,0,1,0.,12.0,0.,12.0,0.,12.0,0.,12.0
1979-08-03 00:23:11.520 ,0,0,0.,12.0,0.,12.0,0.,12.0,0.,12.0
1979-08-03 00:23:23.520 ,0,0,0.,12.0,0.,12.0,0.,12.0,0.,12.0
1979-08-03 00:23:35.520 ,0,0,0.,12.0,0.,12.0,0.,12.0,0.,12.0
1979-08-03 00:23:47.520 ,0,0,0.,12.0,0.,12.0,0.,12.0,0.,12.0
1979-08-03 00:23:59.520 ,4,1,0.,12.0,0.,12.0,0.,12.0,0.,12.0
1979-08-03 00:24:11.520 ,4,1,0.,12.0,0.,12.0,0.,12.0,0.,12.0
1979-08-03 00:24:23.520 ,0,1,0.,12.0,0.,12.0,0.,12.0,0.,12.0
1979-08-03 00:24:35.520 ,0,1,0.,12.0,0.,12.0,0.,12.0,0.,12.0
1979-08-03 00:24:47.520 ,3,1,0.,12.0,0.,12.0,0.,12.0,0.,12.0
1979-08-03 00:24:59.520 ,3,1,0.,12.0,0.,12.0,0.,12.0,0.,12.0
1979-08-03 00:25:11.520 ,7,1,0.,12.0,0.,12.0,0.,12.0,0.,12.0
1979-08-03 00:25:23.520 ,7,1,0.,12.0,0.,12.0,0.,12.0,0.,12.0
1979-08-03 00:25:35.520 ,4,1,0.,12.0,0.,12.0,0.,12.0,0.,12.0
1979-08-03 00:25:47.520 ,4,1,0.,12.0,0.,12.0,0.,12.0,0.,12.0
1979-08-03 00:25:59.520 ,0,1,0.,12.0,0.,12.0,0.,12.0,0.,12.0
1979-08-03 00:26:11.520 ,0,1,0.,12.0,0.,12.0,0.,12.0,0.,12.0
1979-08-03 00:26:23.520 ,3,1,0.,12.0,0.,12.0,0.,12.0,0.,12.0
1979-08-03 00:26:35.520 ,3,1,0.,12.0,0.,12.0,0.,12.0,0.,12.0
1979-08-03 00:26:47.520 ,7,1,0.,12.0,0.,12.0,0.,12.0,0.,12.0
1979-08-03 00:26:59.520 ,7,1,0.,12.0,0.,12.0,0.,12.0,0.,12.0
1979-08-03 00:27:11.520 ,4,1,0.,12.0,0.,12.0,0.,12.0,0.,12.0
1979-08-03 00:27:23.520 ,4,1,0.,12.0,0.,12.0,0.,12.0,0.,12.0
1979-08-03 00:27:35.520 ,0,1,0.,12.0,0.,12.0,0.,12.0,0.,12.0
1979-08-03 00:27:47.520 ,0,1,0.,12.0,0.,12.0,0.,12.0,0.,12.0
1979-08-03 00:27:59.520 ,3,1,0.,12.0,0.,12.0,0.,12.0,0.,12.0
1979-08-03 00:28:11.520 ,3,1,0.,12.0,0.,12.0,0.,12.0,0.,12.0
1979-08-03 00:28:23.520 ,7,1,0.,12.0,0.,12.0,0.,12.0,0.,12.0
1979-08-03 00:28:35.520 ,7,1,0.,12.0,0.,12.0,0.,12.0,0.,12.0
1979-08-03 00:28:47.520 ,4,1,0.,12.0,0.,12.0,0.,12.0,0.,12.0
1979-08-03 00:28:59.520 ,4,1,0.,12.0,0.,12.0,0.,12.0,0.,12.0
1979-08-03 00:29:11.520 ,0,1,0.,12.0,0.,12.0,0.,12.0,0.,12.0
1979-08-03 00:29:23.520 ,0,1,0.,12.0,0.,12.0,0.,12.0,0.,12.0
1979-08-03 00:29:35.520 ,0,0,0.,12.0,0.,12.0,0.,12.0,0.,12.0
1979-08-03 00:29:47.520 ,0,0,0.,12.0,0.,12.0,0.,12.0,0.,12.0
1979-08-03 00:29:59.520 ,0,0,0.,12.0,0.,12.0,0.,12.0,0.,12.0
1979-08-03 00:30:11.520 ,0,0,0.,12.0,0.,12.0,0.,12.0,0.,12.0
1979-08-03 00:30:23.520 ,5,1,0.,12.0,0.,12.0,0.,12.0,0.,12.0
1979-08-03 00:30:35.520 ,5,1,0.,12.0,0.,12.0,0.,12.0,0.,12.0
1979-08-03 00:30:47.520 ,5,0,0.,12.0,0.,12.0,0.,12.0,0.,12.0
1979-08-03 00:30:59.520 ,5,0,0.,12.0,0.,12.0,0.,12.0,0.,12.0
1979-08-03 00:31:11.520 ,4,1,0.,12.0,0.,12.0,0.,12.0,0.,12.0
1979-08-03 00:31:23.520 ,4,1,0.,12.0,0.,12.0,0.,12.0,0.,12.0
1979-08-03 00:31:35.520 ,4,0,0.,12.0,0.,12.0,0.,12.0,0.,12.0
1979-08-03 00:31:47.520 ,4,0,0.,12.0,0.,12.0,0.,12.0,0.,12.0
1979-08-03 00:31:59.520 ,3,1,0.,12.0,0.,12.0,0.,12.0,0.,12.0
1979-08-03 00:32:11.520 ,3,1,0.,12.0,0.,12.0,0.,12.0,0.,12.0
1979-08-03 00:32:23.520 ,3,0,0.,12.0,0.,12.0,0.,12.0,0.,12.0
1979-08-03 00:32:35.520 ,3,0,0.,12.0,0.,12.0,0.,12.0,0.,12.0
1979-08-03 00:32:47.520 ,2,1,0.,12.0,0.,12.0,0.,12.0,0.,12.0
1979-08-03 00:32:59.520 ,2,1,0.,12.0,0.,12.0,0.,12.0,0.,12.0
1979-08-03 00:33:11.520 ,2,0,0.,12.0,0.,12.0,0.,12.0,0.,12.0
1979-08-03 00:33:23.520 ,2,0,0.,12.0,0.,12.0,0.,12.0,0.,12.0
1979-08-03 00:33:35.520 ,1,1,0.,12.0,0.,12.0,0.,12.0,0.,12.0
1979-08-03 00:33:47.520 ,1,1,0.,12.0,0.,12.0,0.,12.0,0.,12.0
1979-08-03 00:33:59.520 ,1,0,0.,12.0,0.,12.0,0.,12.0,0.,12.0
1979-08-03 00:34:11.520 ,1,0,0.,12.0,0.,12.0,0.,12.0,0.,12.0
1979-08-03 00:34:23.520 ,0,1,0.,12.0,0.,12.0,0.,12.0,0.,12.0
1979-08-03 00:34:35.520 ,0,1,0.,12.0,0.,12.0,0.,12.0,0.,12.0
1979-08-03 00:34:47.520 ,0,0,0.,12.0,0.,12.0,0.,12.0,0.,12.0
1979-08-03 00:34:59.520 ,0,0,0.,12.0,0.,12.0,0.,12.0,0.,12.0
1979-08-03 00:35:11.520 ,0,1,0.,12.0,0.,12.0,0.,12.0,0.,12.0
1979-08-03 00:35:23.520 ,0,1,0.,12.0,0.,12.0,0.,12.0,0.,12.0
1979-08-03 00:35:35.520 ,0,0,0.,12.0,0.,12.0,0.,12.0,0.,12.0
1979-08-03 00:35:47.520 ,0,0,0.,12.0,0.,12.0,0.,12.0,0.,12.0
1979-08-03 00:35:59.520 ,1,1,0.,12.0,0.,12.0,0.,12.0,0.,12.0
1979-08-03 00:36:11.520 ,1,1,0.,12.0,0.,12.0,0.,12.0,0.,12.0
1979-08-03 00:36:23.520 ,1,0,0.,12.0,0.,12.0,0.,12.0,0.,12.0
1979-08-03 00:36:35.520 ,1,0,0.,12.0,0.,12.0,0.,12.0,0.,12.0
1979-08-03 00:36:47.520 ,2,1,0.,12.0,0.,12.0,0.,12.0,0.,12.0
1979-08-03 00:36:59.520 ,2,1,0.,12.0,0.,12.0,0.,12.0,0.,12.0
1979-08-03 00:37:11.520 ,2,0,0.,12.0,0.,12.0,0.,12.0,0.,12.0
1979-08-03 00:37:23.520 ,2,0,0.,12.0,0.,12.0,0.,12.0,0.,12.0
1979-08-03 00:37:35.520 ,3,1,0.,12.0,0.,12.0,0.,12.0,0.,12.0
1979-08-03 00:37:47.520 ,3,1,0.,12.0,0.,12.0,0.,12.0,0.,12.0
1979-08-03 00:37:59.520 ,3,0,0.,12.0,0.,12.0,0.,12.0,0.,12.0
1979-08-03 00:38:11.520 ,3,0,0.,12.0,0.,12.0,0.,12.0,0.,12.0
1979-08-03 00:38:23.520 ,4,1,0.,12.0,0.,12.0,0.,12.0,0.,12.0
1979-08-03 00:38:35.520 ,4,1,0.,12.0,0.,12.0,0.,12.0,0.,12.0
1979-08-03 00:38:47.520 ,4,0,0.,12.0,0.,12.0,0.,12.0,0.,12.0
1979-08-03 00:38:59.520 ,4,0,0.,12.0,0.,12.0,0.,12.0,0.,12.0
1979-08-03 00:39:11.520 ,5,1,0.,12.0,0.,12.0,0.,12.0,0.,12.0
1979-08-03 00:39:23.520 ,5,1,0.,12.0,0.,12.0,0.,12.0,0.,12.0
1979-08-03 00:39:35.520 ,5,0,0.,12.0,0.,12.0,0.,12.0,0.,12.0
1979-08-03 00:39:47.520 ,5,0,0.,12.0,0.,12.0,0.,12.0,0.,12.0
1979-08-03 00:39:59.520 ,6,1,0.,12.0,0.,12.0,0.,12.0,0.,12.0
1979-08-03 00:40:11.520 ,6,1,0.,12.0,0.,12.0,0.,12.0,0.,12.0
1979-08-03 00:40:23.520 ,6,0,0.,12.0,0.,12.0,0.,12.0,0.,12.0
1979-08-03 00:40:35.520 ,6,0,0.,12.0,0.,12.0,0.,12.0,0.,12.0
1979-08-03 00:40:47.520 ,7,1,0.,12.0,0.,12.0,0.,12.0,0.,12.0
1979-08-03 00:40:59.520 ,7,1,0.,12.0,0.,12.0,0.,12.0,0.,12.0
1979-08-03 00:41:11.520 ,7,0,0.,12.0,0.,12.0,0.,12.0,0.,12.0
1979-08-03 00:41:23.520 ,7,0,0.,12.0,0.,12.0,0.,12.0,0.,12.0
1979-08-03 00:41:35.520 ,7,1,0.,12.0,0.,12.0,0.,12.0,0.,12.0
1979-08-03 00:41:47.520 ,7,1,0.,12.0,0.,12.0,0.,12.0,0.,12.0
1979-08-03 00:41:59.520 ,7,0,0.,12.0,0.,12.0,0.,12.0,0.,12.0
1979-08-03 00:42:11.520 ,7,0,0.,12.0,0.,12.0,0.,12.0,0.,12.0
1979-08-03 00:42:23.520 ,6,1,0.,12.0,0.,12.0,0.,12.0,0.,12.0
1979-08-03 00:42:35.520 ,6,1,0.,12.0,0.,12.0,0.,12.0,0.,12.0
1979-08-03 00:42:47.520 ,6,0,0.,12.0,0.,12.0,0.,12.0,0.,12.0
1979-08-03 00:42:59.520 ,6,0,0.,12.0,0.,12.0,0.,12.0,0.,12.0
1979-08-03 00:43:11.520 ,5,1,0.,12.0,0.,12.0,0.,12.0,0.,12.0
1979-08-03 00:43:23.520 ,5,1,0.,12.0,0.,12.0,0.,12.0,0.,12.0
1979-08-03 00:43:35.520 ,5,0,0.,12.0,0.,12.0,0.,12.0,0.,12.0
1979-08-03 00:43:47.520 ,5,0,0.,12.0,0.,12.0,0.,12.0,0.,12.0
1979-08-03 00:43:59.520 ,4,1,0.,12.0,0.,12.0,0.,12.0,0.,12.0
1979-08-03 00:44:11.520 ,4,1,0.,12.0,0.,12.0,0.,12.0,0.,12.0
1979-08-03 00:44:23.520 ,4,0,0.,12.0,0.,12.0,0.,12.0,0.,12.0
1979-08-03 00:44:35.520 ,4,0,0.,12.0,0.,12.0,0.,12.0,0.,12.0
1979-08-03 00:44:47.520 ,3,1,0.,12.0,0.,12.0,0.,12.0,0.,12.0
1979-08-03 00:44:59.520 ,3,1,0.,12.0,0.,12.0,0.,12.0,0.,12.0
1979-08-03 00:45:11.520 ,3,0,0.,12.0,0.,12.0,0.,12.0,0.,12.0
1979-08-03 00:45:23.520 ,3,0,0.,12.0,0.,12.0,0.,12.0,0.,12.0
1979-08-03 00:45:35.520 ,2,1,0.,12.0,0.,12.0,0.,12.0,0.,12.0
1979-08-03 00:45:47.520 ,2,1,0.,12.0,0.,12.0,0.,12.0,0.,12.0
1979-08-03 00:45:59.520 ,2,0,0.,12.0,0.,12.0,0.,12.0,0.,12.0
1979-08-03 00:46:11.520 ,2,0,0.,12.0,0.,12.0,0.,12.0,0.,12.0
1979-08-03 00:46:23.520 ,1,1,0.,12.0,0.,12.0,0.,12.0,0.,12.0
1979-08-03 00:46:35.520 ,1,1,0.,12.0,0.,12.0,0.,12.0,0.,12.0
1979-08-03 00:46:47.520 ,1,0,0.,12.0,0.,12.0,0.,12.0,1.,12.0
1979-08-03 00:46:59.520 ,1,0,0.,12.0,0.,12.0,0.,12.0,0.,12.0
1979-08-03 00:47:11.520 ,0,1,0.,12.0,0.,12.0,0.,12.0,0.,12.0
1979-08-03 00:47:23.520 ,0,1,0.,12.0,0.,12.0,0.,12.0,0.,12.0
1979-08-03 00:47:35.520 ,0,0,0.,12.0,0.,12.0,0.,12.0,0.,12.0
1979-08-03 00:47:47.520 ,0,0,0.,12.0,0.,12.0,0.,12.0,0.,12.0
1979-08-03 00:47:59.520 ,0,1,0.,12.0,0.,12.0,0.,12.0,0.,12.0
1979-08-03 00:48:11.520 ,0,1,0.,12.0,0.,12.0,0.,12.0,0.,12.0
1979-08-03 00:48:23.520 ,0,0,0.,12.0,0.,12.0,0.,12.0,0.,12.0
1979-08-03 00:48:35.520 ,0,0,0.,12.0,0.,12.0,0.,12.0,0.,12.0
1979-08-03 00:48:47.520 ,1,1,0.,12.0,0.,12.0,0.,12.0,0.,12.0
1979-08-03 00:48:59.520 ,1,1,0.,12.0,0.,12.0,0.,12.0,0.,12.0
1979-08-03 00:49:11.520 ,1,0,0.,12.0,0.,12.0,0.,12.0,0.,12.0
1979-08-03 00:49:23.520 ,1,0,0.,12.0,0.,12.0,0.,12.0,0.,12.0
1979-08-03 00:49:35.520 ,2,1,0.,12.0,0.,12.0,0.,12.0,0.,12.0
1979-08-03 00:49:47.520 ,2,1,0.,12.0,0.,12.0,0.,12.0,0.,12.0
1979-08-03 00:49:59.520 ,2,0,0.,12.0,0.,12.0,0.,12.0,0.,12.0
1979-08-03 00:50:11.520 ,2,0,0.,12.0,0.,12.0,0.,12.0,0.,12.0
1979-08-03 00:50:23.520 ,3,1,0.,12.0,0.,12.0,0.,12.0,0.,12.0
1979-08-03 00:50:35.520 ,3,1,0.,12.0,0.,12.0,0.,12.0,0.,12.0
1979-08-03 00:50:47.520 ,3,0,0.,12.0,0.,12.0,0.,12.0,0.,12.0
1979-08-03 00:50:59.520 ,3,0,0.,12.0,0.,12.0,0.,12.0,0.,12.0
1979-08-03 00:51:11.520 ,4,1,0.,12.0,0.,12.0,0.,12.0,0.,12.0
1979-08-03 00:51:23.520 ,4,1,0.,12.0,0.,12.0,0.,12.0,0.,12.0
1979-08-03 00:51:35.520 ,4,0,0.,12.0,0.,12.0,0.,12.0,0.,12.0
1979-08-03 00:51:47.520 ,4,0,0.,12.0,0.,12.0,0.,12.0,0.,12.0
1979-08-03 00:51:59.520 ,5,1,0.,12.0,0.,12.0,0.,12.0,0.,12.0
1979-08-03 00:52:11.520 ,5,1,0.,12.0,0.,12.0,0.,12.0,0.,12.0
1979-08-03 00:52:23.520 ,5,0,0.,12.0,0.,12.0,0.,12.0,0.,12.0
1979-08-03 00:52:35.520 ,5,0,0.,12.0,0.,12.0,0.,12.0,0.,12.0
1979-08-03 00:52:47.520 ,6,1,0.,12.0,0.,12.0,0.,12.0,0.,12.0
1979-08-03 00:52:59.520 ,6,1,0.,12.0,0.,12.0,0.,12.0,0.,12.0
1979-08-03 00:53:11.520 ,6,0,0.,12.0,0.,12.0,0.,12.0,0.,12.0
1979-08-03 00:53:23.520 ,6,0,0.,12.0,0.,12.0,0.,12.0,0.,12.0
1979-08-03 00:53:35.520 ,7,1,0.,12.0,0.,12.0,0.,12.0,0.,12.0
1979-08-03 00:53:47.520 ,7,1,0.,12.0,0.,12.0,0.,12.0,0.,12.0
1979-08-03 00:53:59.520 ,7,0,0.,12.0,0.,12.0,0.,12.0,0.,12.0
1979-08-03 00:54:11.520 ,7,0,0.,12.0,0.,12.0,0.,12.0,0.,12.0
1979-08-03 00:54:23.520 ,7,1,0.,12.0,0.,12.0,0.,12.0,0.,12.0
1979-08-03 00:54:35.520 ,7,1,0.,12.0,0.,12.0,0.,12.0,0.,12.0
1979-08-03 00:54:47.520 ,7,0,0.,12.0,0.,12.0,0.,12.0,0.,12.0
1979-08-03 00:54:59.520 ,7,0,0.,12.0,0.,12.0,0.,12.0,0.,12.0
1979-08-03 00:55:11.520 ,6,1,0.,12.0,0.,12.0,0.,12.0,0.,12.0
1979-08-03 00:55:23.520 ,6,1,0.,12.0,0.,12.0,0.,12.0,0.,12.0
1979-08-03 00:55:35.520 ,6,0,0.,12.0,0.,12.0,0.,12.0,0.,12.0
1979-08-03 00:55:47.520 ,6,0,0.,12.0,0.,12.0,0.,12.0,0.,12.0
1979-08-03 00:55:59.520 ,5,1,0.,12.0,0.,12.0,0.,12.0,0.,12.0
1979-08-03 00:56:11.520 ,5,1,0.,12.0,0.,12.0,0.,12.0,0.,12.0
1979-08-03 00:56:23.520 ,5,0,0.,12.0,0.,12.0,0.,12.0,0.,12.0
1979-08-03 00:56:35.520 ,5,0,0.,12.0,0.,12.0,0.,12.0,0.,12.0
1979-08-03 00:56:47.520 ,4,1,0.,12.0,0.,12.0,0.,12.0,0.,12.0
1979-08-03 00:56:59.520 ,4,1,0.,12.0,0.,12.0,0.,12.0,0.,12.0
1979-08-03 00:57:11.520 ,4,0,0.,12.0,0.,12.0,0.,12.0,0.,12.0
1979-08-03 00:57:23.520 ,4,0,0.,12.0,0.,12.0,0.,12.0,0.,12.0
1979-08-03 00:57:35.520 ,3,1,0.,12.0,0.,12.0,0.,12.0,0.,12.0
1979-08-03 00:57:47.520 ,3,1,0.,12.0,0.,12.0,0.,12.0,0.,12.0
1979-08-03 00:57:59.520 ,3,0,0.,12.0,0.,12.0,0.,12.0,0.,12.0
1979-08-03 00:58:11.520 ,3,0,0.,12.0,0.,12.0,0.,12.0,0.,12.0
1979-08-03 00:58:23.520 ,2,1,0.,12.0,0.,12.0,0.,12.0,0.,12.0
1979-08-03 00:58:35.520 ,2,1,0.,12.0,0.,12.0,0.,12.0,0.,12.0
1979-08-03 00:58:47.520 ,2,0,0.,12.0,0.,12.0,0.,12.0,0.,12.0
1979-08-03 00:58:59.520 ,2,0,0.,12.0,0.,12.0,0.,12.0,0.,12.0
1979-08-03 00:59:11.520 ,1,1,0.,12.0,0.,12.0,0.,12.0,0.,12.0
1979-08-03 00:59:23.520 ,1,1,0.,12.0,0.,12.0,0.,12.0,0.,12.0
1979-08-03 00:59:35.520 ,1,0,0.,12.0,0.,12.0,0.,12.0,1.,12.0
1979-08-03 00:59:47.520 ,1,0,0.,12.0,0.,12.0,0.,12.0,0.,12.0
1979-08-03 00:59:59.520 ,0,1,0.,12.0,0.,12.0,0.,12.0,0.,12.0
1979-08-03 01:00:11.520 ,0,1,0.,12.0,0.,12.0,0.,12.0,0.,12.0
1979-08-03 01:00:23.520 ,0,0,0.,12.0,0.,12.0,0.,12.0,0.,12.0
1979-08-03 01:00:35.520 ,0,0,0.,12.0,0.,12.0,0.,12.0,0.,12.0
1979-08-03 01:00:47.520 ,0,1,0.,12.0,0.,12.0,0.,12.0,0.,12.0
1979-08-03 01:00:59.520 ,0,1,0.,12.0,0.,12.0,0.,12.0,0.,12.0
1979-08-03 01:01:11.520 ,0,0,0.,12.0,0.,12.0,0.,12.0,0.,12.0
1979-08-03 01:01:23.520 ,0,0,0.,12.0,0.,12.0,0.,12.0,0.,12.0
1979-08-03 01:01:35.520 ,1,1,0.,12.0,0.,12.0,0.,12.0,0.,12.0
1979-08-03 01:01:47.520 ,1,1,0.,12.0,0.,12.0,0.,12.0,0.,12.0
1979-08-03 01:01:59.520 ,1,0,1.,12.0,0.,12.0,0.,12.0,0.,12.0
1979-08-03 01:02:11.520 ,1,0,0.,12.0,0.,12.0,0.,12.0,0.,12.0
1979-08-03 01:02:23.520 ,2,1,0.,12.0,0.,12.0,0.,12.0,0.,12.0
1979-08-03 01:02:35.520 ,2,1,0.,12.0,0.,12.0,0.,12.0,0.,12.0
1979-08-03 01:02:47.520 ,2,0,0.,12.0,0.,12.0,0.,12.0,0.,12.0
1979-08-03 01:02:59.520 ,2,0,0.,12.0,0.,12.0,0.,12.0,0.,12.0
1979-08-03 01:03:11.520 ,3,1,0.,12.0,0.,12.0,0.,12.0,0.,12.0
1979-08-03 01:03:23.520 ,3,1,0.,12.0,0.,12.0,0.,12.0,0.,12.0
1979-08-03 01:03:35.520 ,3,0,0.,12.0,0.,12.0,0.,12.0,0.,12.0
1979-08-03 01:03:47.520 ,3,0,0.,12.0,0.,12.0,0.,12.0,0.,12.0
1979-08-03 01:03:59.520 ,4,1,0.,12.0,0.,12.0,0.,12.0,0.,12.0
1979-08-03 01:04:11.520 ,4,1,0.,12.0,0.,12.0,0.,12.0,0.,12.0
1979-08-03 01:04:23.520 ,4,0,0.,12.0,0.,12.0,0.,12.0,0.,12.0
1979-08-03 01:04:35.520 ,4,0,0.,12.0,0.,12.0,0.,12.0,0.,12.0
1979-08-03 01:04:47.520 ,5,1,0.,12.0,0.,12.0,0.,12.0,0.,12.0
1979-08-03 01:04:59.520 ,5,1,0.,12.0,0.,12.0,0.,12.0,0.,12.0
1979-08-03 01:05:11.520 ,5,0,0.,12.0,0.,12.0,0.,12.0,0.,12.0
1979-08-03 01:05:23.520 ,5,0,0.,12.0,0.,12.0,0.,12.0,0.,12.0
1979-08-03 01:05:35.520 ,6,1,0.,12.0,0.,12.0,0.,12.0,0.,12.0
1979-08-03 01:05:47.520 ,6,1,0.,12.0,0.,12.0,0.,12.0,0.,12.0
1979-08-03 01:05:59.520 ,6,0,0.,12.0,0.,12.0,0.,12.0,0.,12.0
1979-08-03 01:06:11.520 ,6,0,0.,12.0,0.,12.0,0.,12.0,0.,12.0
1979-08-03 01:06:23.520 ,7,0,0.,12.0,0.,12.0,0.,12.0,0.,12.0
1979-08-03 01:06:35.520 ,7,0,0.,12.0,0.,12.0,0.,12.0,0.,12.0
1979-08-03 01:06:47.520 ,7,0,0.,12.0,0.,12.0,0.,12.0,0.,12.0
1979-08-03 01:06:59.520 ,7,0,0.,12.0,0.,12.0,0.,12.0,0.,12.0
1979-08-03 01:07:11.520 ,4,1,0.,12.0,0.,12.0,0.,12.0,0.,12.0
1979-08-03 01:07:23.520 ,4,1,0.,12.0,0.,12.0,0.,12.0,0.,12.0
1979-08-03 01:07:35.520 ,0,1,0.,12.0,0.,12.0,0.,12.0,0.,12.0
1979-08-03 01:07:47.520 ,0,1,0.,12.0,0.,12.0,0.,12.0,0.,12.0
1979-08-03 01:07:59.520 ,3,1,0.,12.0,0.,12.0,0.,12.0,0.,12.0
1979-08-03 01:08:11.520 ,3,1,0.,12.0,0.,12.0,0.,12.0,0.,12.0
1979-08-03 01:08:23.520 ,7,1,0.,12.0,0.,12.0,0.,12.0,0.,12.0
1979-08-03 01:08:35.520 ,7,1,0.,12.0,0.,12.0,0.,12.0,0.,12.0
1979-08-03 01:08:47.520 ,4,1,0.,12.0,0.,12.0,0.,12.0,0.,12.0
1979-08-03 01:08:59.520 ,4,1,0.,12.0,0.,12.0,0.,12.0,0.,12.0
1979-08-03 01:09:11.520 ,0,1,0.,12.0,0.,12.0,0.,12.0,0.,12.0
1979-08-03 01:09:23.520 ,0,1,0.,12.0,0.,12.0,0.,12.0,0.,12.0
1979-08-03 01:09:35.520 ,3,1,0.,12.0,0.,12.0,0.,12.0,0.,12.0
1979-08-03 01:09:47.520 ,3,1,0.,12.0,0.,12.0,0.,12.0,0.,12.0
1979-08-03 01:09:59.520 ,7,1,0.,12.0,0.,12.0,0.,12.0,0.,12.0
1979-08-03 01:10:11.520 ,7,1,0.,12.0,0.,12.0,0.,12.0,0.,12.0
1979-08-03 01:10:23.520 ,4,1,0.,12.0,0.,12.0,0.,12.0,0.,12.0
1979-08-03 01:10:35.520 ,4,1,0.,12.0,0.,12.0,0.,12.0,0.,12.0
1979-08-03 01:10:47.520 ,0,1,0.,12.0,0.,12.0,0.,12.0,0.,12.0
1979-08-03 01:10:59.520 ,0,1,0.,12.0,0.,12.0,0.,12.0,0.,12.0
1979-08-03 01:11:11.520 ,3,1,0.,12.0,0.,12.0,0.,12.0,0.,12.0
1979-08-03 01:11:23.520 ,3,1,0.,12.0,0.,12.0,0.,12.0,0.,12.0
1979-08-03 01:11:35.520 ,7,1,0.,12.0,0.,12.0,0.,12.0,0.,12.0
1979-08-03 01:11:47.520 ,7,1,0.,12.0,0.,12.0,0.,12.0,0.,12.0
1979-08-03 01:11:59.520 ,4,1,0.,12.0,0.,12.0,0.,12.0,0.,12.0
1979-08-03 01:12:11.520 ,4,1,0.,12.0,0.,12.0,0.,12.0,0.,12.0
1979-08-03 01:12:23.520 ,0,1,0.,12.0,0.,12.0,0.,12.0,0.,12.0
1979-08-03 01:12:35.520 ,0,1,0.,12.0,0.,12.0,0.,12.0,0.,12.0
1979-08-03 01:12:47.520 ,3,1,0.,12.0,0.,12.0,0.,12.0,0.,12.0
1979-08-03 01:12:59.520 ,3,1,0.,12.0,0.,12.0,0.,12.0,0.,12.0
1979-08-03 01:13:11.520 ,7,1,0.,12.0,0.,12.0,0.,12.0,0.,12.0
1979-08-03 01:13:23.520 ,7,1,0.,12.0,0.,12.0,0.,12.0,0.,12.0
1979-08-03 01:13:35.520 ,4,1,0.,12.0,0.,12.0,0.,12.0,0.,12.0
1979-08-03 01:13:47.520 ,4,1,0.,12.0,0.,12.0,0.,12.0,0.,12.0
1979-08-03 01:13:59.520 ,0,1,0.,12.0,0.,12.0,0.,12.0,0.,12.0
1979-08-03 01:14:11.520 ,0,1,0.,12.0,0.,12.0,0.,12.0,0.,12.0
1979-08-03 01:14:23.520 ,3,1,0.,12.0,0.,12.0,0.,12.0,0.,12.0
1979-08-03 01:14:35.520 ,3,1,0.,12.0,0.,12.0,0.,12.0,0.,12.0
1979-08-03 01:14:47.520 ,7,1,0.,12.0,0.,12.0,0.,12.0,0.,12.0
1979-08-03 01:14:59.520 ,7,1,0.,12.0,0.,12.0,0.,12.0,0.,12.0
1979-08-03 01:15:11.520 ,4,1,0.,12.0,0.,12.0,0.,12.0,0.,12.0
1979-08-03 01:15:23.520 ,4,1,0.,12.0,0.,12.0,0.,12.0,0.,12.0
1979-08-03 01:15:35.520 ,0,1,0.,12.0,0.,12.0,0.,12.0,0.,12.0
1979-08-03 01:15:47.520 ,0,1,0.,12.0,0.,12.0,0.,12.0,0.,12.0
1979-08-03 01:15:59.520 ,3,1,0.,12.0,0.,12.0,0.,12.0,0.,12.0
1979-08-03 01:16:11.520 ,3,1,0.,12.0,0.,12.0,0.,12.0,0.,12.0
1979-08-03 01:16:23.520 ,7,1,0.,12.0,0.,12.0,0.,12.0,0.,12.0
1979-08-03 01:16:35.520 ,7,1,0.,12.0,0.,12.0,0.,12.0,0.,12.0
1979-08-03 01:16:47.520 ,4,1,0.,12.0,0.,12.0,0.,12.0,0.,12.0
1979-08-03 01:16:59.520 ,4,1,0.,12.0,0.,12.0,0.,12.0,0.,12.0
1979-08-03 01:17:11.520 ,0,1,0.,12.0,0.,12.0,0.,12.0,0.,12.0
1979-08-03 01:17:23.520 ,0,1,0.,12.0,0.,12.0,0.,12.0,0.,12.0